User: anonymous   Login
Location: Unspecified
(0.0000°N, 0.0000°E)
Time: 04:13:44
(UTC+00:00)
Language:

STARLINK-1454 - Orbit

View from above orbital plane
View from above orbital plane
View from above satellite
View from above satellite

Ground track
Ground track

The orbit is defined by the following mean orbital elements,

1 45671U          26145.12375903 +.00000000 +00000-0 +51301-3 0 00007
2 45671  53.0438  41.3281 0002958  46.7954 313.3307 15.64978762    01
Epoch (UTC): 25 May 2026 02:58:12
Eccentricity: 0.0002958
inclination: 53.0438°
perigee height: 371 km
apogee height: 375 km
right ascension of ascending node: 41.3281°
argument of perigee: 46.7954°
revolutions per day: 15.64978762
mean anomaly at epoch: 313.3307°

The dashed part of the orbit path shows where the satellite is in the earth's shadow,  

DLR